Weather in Mikulintsy

Ukraine / Ternopil District     49°23′42″N   25°36′31″E
temp.,
°C
wind,
m/s
gust,
m/s
humid.,
%
clouds,
%
prec.,
mm/h
press.,
hPa
HPBL,
m
29 july, thu
thu2900:00+20sse398611 0.0 1012197
03:00+19ssw37811 0.0 1012141
06:00+19sw22734 0.0 101119
09:00+23wnw47680 0.0 1011343
12:00+26wnw67650 0.0 1011969
15:00+26nw66617 0.0 10111256
18:00+24nw686622 0.0 10111173
21:00+20wnw37840 0.0 1012170
30 july, fri
fri3000:00+18w35880 0.0 101475
03:00+17wnw34830 0.0 101364
06:00+16w22840 0.0 101422
09:00+22w22670 0.0 1014300
12:00+26wsw34510 0.0 10131513
15:00+27wsw34460 0.0 10121736
18:00+27w34474 0.0 10111628
21:00+22ssw22621 0.0 101111
31 july, sat
sat3100:00+20s46665 0.0 101192
03:00+19sse39740 0.0 1010142
06:00+18s36750 0.0 101097
09:00+23ssw46640 0.0 1010295
12:00+28s56515 0.0 1009836
15:00+30s664110 0.0 10081511
18:00+29sse79492 0.0 1006880
21:00+21ene229189 2.6 100851
1 august, sun
sun100:00+19wnw599623 1.6 1010314
03:00+17nw5119650 1.9 1010307
06:00+15nnw22974 0.0 101146
09:00+19e11805 0.0 1012318
12:00+24se33610 0.0 1011787
15:00+27sse455297 0.0 10091027
18:00+28sse5655100 0.0 1007975
21:00+18n2390100 8.0 101072
2 august, mon
mon200:00+18sse4119197 0.9 1007260
03:00+18ssw616896 0.9 1006382
06:00+16wsw3494100 0.0 100681
09:00+19nw458535 0.0 1007441
12:00+18wnw6984100 0.4 1009688
15:00+18nw798154 1.1 1010801
18:00+18nw687040 0.0 10111026
21:00+15nw37850 0.1 1013201